This is the latest recevied weather packets stored in our database for station/object W5ZYX. If no packets are shown the sender has not sent any weather packets the latest 1 day(s).
| Time | Temp. | Humidity | Pressure | Rain* | Wind** | Luminosity | Snow |
|---|---|---|---|---|---|---|---|
| 1778007936 | 27.78° C | 78% | 1008.2 hPa | 0 mm | 2.24 m/s, 169° | - | - |
| 1778007645 | 27.78° C | 77% | 1008.3 hPa | 0 mm | 3.13 m/s, 263° | - | - |
| 1778007337 | 27.78° C | 77% | 1008.4 hPa | 0 mm | 1.34 m/s, 206° | - | - |
| 1778007037 | 27.78° C | 79% | 1008.5 hPa | 0 mm | 1.79 m/s, 188° | - | - |
| 1778006751 | 27.78° C | 78% | 1008.5 hPa | 0 mm | 2.24 m/s, 188° | - | - |
| 1778006436 | 27.78° C | 77% | 1008.6 hPa | 0 mm | 1.79 m/s, 229° | - | - |
| 1778006137 | 27.78° C | 79% | 1008.7 hPa | 0 mm | 1.34 m/s, 166° | - | - |
| 1778005852 | 27.22° C | 79% | 1008.7 hPa | 0 mm | 1.79 m/s, 143° | - | - |
| 1778005538 | 27.22° C | 79% | 1008.8 hPa | 0 mm | 1.34 m/s, 166° | - | - |
| 1778005236 | 27.22° C | 78% | 1008.8 hPa | 0 mm | 0.89 m/s, 262° | - | - |
| 1778004947 | 27.22° C | 79% | 1008.9 hPa | 0 mm | 2.24 m/s, 205° | - | - |
| 1778004637 | 27.22° C | 81% | 1008.9 hPa | 0 mm | 1.34 m/s, 206° | - | - |
| 1778004341 | 26.67° C | 79% | 1008.8 hPa | 0 mm | 1.79 m/s, 211° | - | - |
| 1778004056 | 26.67° C | 80% | 1008.8 hPa | 0 mm | 1.34 m/s, 218° | - | - |
| 1778003740 | 26.67° C | 81% | 1008.8 hPa | 0 mm | 2.24 m/s, 221° | - | - |
| 1778003439 | 26.67° C | 80% | 1008.9 hPa | 0 mm | 1.34 m/s, 218° | - | - |
| 1778003148 | 26.67° C | 81% | 1009 hPa | 0 mm | 1.34 m/s, 172° | - | - |
| 1778002837 | 26.67° C | 81% | 1009 hPa | 0 mm | 1.79 m/s, 178° | - | - |
| 1778002537 | 26.11° C | 81% | 1009 hPa | 0 mm | 2.24 m/s, 209° | - | - |
| 1778002249 | 26.11° C | 81% | 1009 hPa | 0 mm | 1.79 m/s, 209° | - | - |
| 1778001936 | 26.11° C | 81% | 1009 hPa | 0 mm | 2.68 m/s, 180° | - | - |
| 1778001636 | 26.11° C | 82% | 1009 hPa | 0 mm | 1.79 m/s, 169° | - | - |
| 1778001356 | 26.11° C | 82% | 1009.1 hPa | 0 mm | 2.24 m/s, 186° | - | - |
| 1778001039 | 26.11° C | 83% | 1009.2 hPa | 0 mm | 1.79 m/s, 216° | - | - |
| 1778000737 | 25.56° C | 83% | 1009.2 hPa | 0 mm | 1.34 m/s, 211° | - | - |
* Rain latest hour (hover to see other rain measurements)
** Current wind speed in m/s (hover to see current wind gust speed)